Location: ?????????
(44.2517°N, 135.2292°E)
Time: 07:34:57
(UTC+00:00)

Meteor 1-21 - Pass Details

Date: 19 May 2025
Orbit: 845 x 884 km, 81.2° (Epoch: 15 June)

Event Time Altitude Azimuth Distance (km) Brightness Sun altitude
Exits shadow 16:35:42 46° 189° (S) 1,125 4.4 -21.9°
Maximum altitude 16:37:28 90° 134° (SE) 853 4.1 -21.7°
Drops below altitude 10° 16:43:07 10° 11° (N) 2,488 7.7 -21.3°
Sets 16:45:34 0° 11° (N) 3,432 8.7 -21.1°
